< < Back
Terminal Aerodrome Forecast


Current Version              Previous Versions:   1  2  3  4  5  6  7  8  9  

Terminal Aerodrome Forecast

285
FTUS42 KMLB 252107 AAA
TAFMCO
TAF AMD
KMCO 252107Z 2521/2618 05013G19KT P6SM SCT045
     FM260000 05009KT P6SM FEW040 SCT250
     FM260300 03005KT P6SM FEW035 SCT250
     FM261400 06010KT P6SM SCT030=

Latest METAR

527
SAUS70 KWBC 260300 RRA
MTRMCO
METAR KMCO 260253Z 04008KT 10SM FEW250 SCT300 27/22 A3002 RMK AO2 SLP165
T02670222 53004


USA.gov is the U.S. government's official web portal to all federal, state and local government web resources and services.